Burlington, VT

8:22 PM EDT on July 25, 2017 (GMT -0400)
Burlington International

Weather History for KBTV - July, 2013

Change the Weather History Date:

Sunday, July 28, 2013

  Actual Average Record
Temperature  
Mean Temperature 74 °F 71 °F  
Max Temperature 80 °F 81 °F 96 °F (1964)
Min Temperature 68 °F 60 °F 45 °F (2001)
Degree Days  
Heating Degree Days 0 0  
Month to date heating degree days 7 8  
Since 1 June heating degree days 72 81  
Since 1 July heating degree days 7 8  
Cooling Degree Days 9 6  
Month to date cooling degree days 267 168  
Year to date cooling degree days 429 284  
Since 1 June cooling degree days 382 265  
Growing Degree Days 23 (Base 50)    
Moisture  
Dew Point 63 °F    
Average Humidity 72    
Maximum Humidity 84    
Minimum Humidity 60    
Precipitation  
Precipitation 0.01 in 0.14 in 1.61 in (2014)
Month to date precipitation 4.33 3.75  
Year to date precipitation 29.46 19.75  
Snow  
Snow 0.00 in 0.00 in 0.00 in (2002)
Month to date snowfall 0.0 0.0  
Since 1 June snowfall 0.0 0.0  
Since 1 July snowfall 0.0 0.0  
Snow Depth 0.00 in    
Sea Level Pressure  
Sea Level Pressure 29.93 in    
Wind  
Wind Speed 6 mph (South)    
Max Wind Speed 16 mph    
Max Gust Speed 22 mph    
Visibility 10 miles    
Events      
T = Trace of Precipitation, MM = Missing Value Source: NWS Daily Summary

Daily Weather History Graph

Daily Weather History Graph

Search for Another Location

Airport or City:

Trip Planner

Search our weather history database for the weather conditions in past years. The results will help you decide how hot, cold, wet, or windy it might be!

Date:

Astronomy

Jul. 28, 2013 Rise Set
Actual Time 5:35 AM EDT 8:22 PM EDT
Civil Twilight 5:01 AM EDT 8:55 PM EDT
Nautical Twilight 4:18 AM EDT 9:38 PM EDT
Astronomical Twilight 3:28 AM EDT 10:27 PM EDT
Moon 11:22 PM EDT (7/28) 12:33 PM EDT (7/28)
Length of Visible Light 15h 54m
Length of Day
14h 46m
Waning Gibbous, 61% of the Moon is Illuminated
Jul 28
Waning Gibbous
Jul 29
Last Quarter
Aug 6
New
Aug 14
First Quarter
Aug 20
Full

Hourly Weather History & Observations

Time (EDT) Temp. Dew Point Humidity Pressure Visibility Wind Dir Wind Speed Gust Speed Precip Events Conditions
12:54 AM 68.0 °F 57.9 °F 70% 29.95 in 10.0 mi SE 4.6 mph - N/A   Clear
1:54 AM 68.0 °F 59.0 °F 73% 29.94 in 10.0 mi South 5.8 mph - N/A   Clear
2:54 AM 72.0 °F 60.1 °F 66% 29.94 in 10.0 mi South 8.1 mph - N/A   Clear
3:54 AM 71.1 °F 60.1 °F 68% 29.93 in 10.0 mi South 4.6 mph - N/A   Clear
4:54 AM 69.1 °F 60.1 °F 73% 29.94 in 10.0 mi Calm Calm - N/A   Partly Cloudy
5:54 AM 69.1 °F 61.0 °F 75% 29.94 in 10.0 mi Calm Calm - N/A   Mostly Cloudy
6:54 AM 69.1 °F 61.0 °F 75% 29.95 in 10.0 mi Calm Calm - N/A   Mostly Cloudy
7:54 AM 70.0 °F 62.1 °F 76% 29.96 in 10.0 mi Calm Calm - 0.00 in   Mostly Cloudy
8:54 AM 72.0 °F 61.0 °F 68% 29.95 in 10.0 mi SSE 6.9 mph - N/A   Mostly Cloudy
9:54 AM 73.9 °F 62.1 °F 66% 29.95 in 10.0 mi South 6.9 mph - N/A   Scattered Clouds
10:54 AM 75.9 °F 61.0 °F 60% 29.93 in 10.0 mi South 12.7 mph - N/A   Mostly Cloudy
11:54 AM 75.9 °F 60.1 °F 58% 29.93 in 10.0 mi South 13.8 mph 19.6 mph N/A   Mostly Cloudy
12:54 PM 77.0 °F 63.0 °F 62% 29.93 in 10.0 mi South 10.4 mph - N/A   Scattered Clouds
1:54 PM 78.1 °F 64.0 °F 62% 29.93 in 10.0 mi South 5.8 mph - N/A   Mostly Cloudy
2:54 PM 79.0 °F 64.9 °F 62% 29.91 in 10.0 mi South 11.5 mph - N/A   Scattered Clouds
3:54 PM 79.0 °F 66.0 °F 64% 29.90 in 10.0 mi South 8.1 mph - N/A   Overcast
4:54 PM 79.0 °F 64.9 °F 62% 29.89 in 10.0 mi SSW 9.2 mph - N/A   Mostly Cloudy
5:54 PM 78.1 °F 66.0 °F 66% 29.89 in 10.0 mi SW 10.4 mph - N/A   Overcast
6:54 PM 75.0 °F 66.0 °F 73% 29.91 in 10.0 mi South 8.1 mph - 0.00 in   Overcast
7:54 PM 73.9 °F 66.0 °F 76% 29.92 in 10.0 mi South 6.9 mph - N/A   Mostly Cloudy
8:54 PM 73.0 °F 66.0 °F 79% 29.92 in 10.0 mi SSW 5.8 mph - N/A   Overcast
9:54 PM 72.0 °F 66.0 °F 81% 29.94 in 10.0 mi South 5.8 mph - N/A   Mostly Cloudy
10:54 PM 72.0 °F 66.0 °F 81% 29.95 in 10.0 mi Calm Calm - N/A   Mostly Cloudy
11:54 PM 72.0 °F 66.0 °F 81% 29.94 in 10.0 mi Calm Calm - N/A   Mostly Cloudy